Flag for Sierra Leone Weather past 2 weeks in Bo, Sierra Leone

Now
77 °F

Clear.


Feels Like: 78 °F
Forecast: 69 / 93 °F
Wind: No wind

Location: Roberts Field

Current Time: Dec 22, 2014 at 1:39:33 AM

Latest Report: Dec 22, 2014 at 1:00 AM


Visibility: 5 mi

Pressure: 29.89 "Hg

Humidity: 94%

Dew point: 75 °F

Location of BoLocation

Historic Weather in Bo — Graph

°F

Bo temperature yesterday

Maximum temperature yesterday: 90 °F (at 1:00 PM)
Minimum temperature yesterday: 75 °F (at 3:00 AM)
Average temperature yesterday: 81 °F

Past Weeks' High & Low Weather Summary

 TemperatureHumidityPressure
High122 °F (Dec 12, 11:30 AM)100% (Dec 17, 6:00 AM)29.98 "Hg (Dec 17, 6:00 AM)
Low72 °F (Dec 13, 3:00 AM)7% (Dec 12, 11:30 AM)29.77 "Hg (Dec 12, 4:30 PM)
Average80 °F84%29.88 "Hg
* Reported Midnight between Dec 6 and Dec 7 — Dec 22 12:30 AM, Bo, Weather by CustomWeather, © 2014

Note: Actual official high and low records may vary slightly from our data, if they occured in-between our weather recording intervals... More about our weather records

Advertising

Bo weather history for previous 24 hours

 ConditionsComfort  
Time TempWeatherWind HumidityBarometerVisibility
12:30 AM
Dec 22
77 °FClear.No wind94%29.89 "Hg6 mi
12:00 AM77 °FClear.3 mph94%29.92 "Hg6 mi
11:30 PM
Dec 21
77 °FClear.No wind94%29.92 "Hg6 mi
11:00 PM77 °FClear.No wind94%29.92 "Hg6 mi
10:30 PM77 °FClear.No wind94%29.92 "Hg6 mi
9:30 PM79 °FPassing clouds.No wind89%29.89 "Hg6 mi
8:00 PM79 °FPassing clouds.No wind94%29.89 "Hg6 mi
7:00 PM81 °FPassing clouds.No wind84%29.86 "Hg6 mi
6:00 PM82 °FPassing clouds.No wind84%29.86 "HgN/A
5:00 PM86 °FPassing clouds.10 mph75%29.83 "HgN/A
4:30 PM88 °FPassing clouds.6 mph70%29.83 "HgN/A
4:00 PM88 °FScattered clouds.5 mph70%29.83 "HgN/A
3:30 PM88 °FWarm.30 mph70%29.83 "HgN/A
3:00 PM90 °FPartly sunny.6 mph55%29.83 "HgN/A
2:30 PM90 °FScattered clouds.7 mph55%29.86 "HgN/A
2:00 PM90 °FScattered clouds.5 mph55%29.89 "HgN/A
1:30 PM90 °FPartly sunny.6 mph59%29.89 "HgN/A
1:00 PM90 °FPartly sunny.6 mph59%29.92 "HgN/A
12:30 PM88 °FPartly sunny.5 mph62%29.92 "HgN/A
12:00 PM88 °FPartly sunny.3 mph62%29.92 "HgN/A
11:30 AM86 °FPartly sunny.8 mph66%29.95 "HgN/A
11:00 AM84 °FPartly sunny.7 mph84%29.95 "HgN/A
10:30 AM82 °FPartly sunny.3 mph84%29.95 "HgN/A
10:00 AM81 °FPartly sunny.7 mph89%29.98 "Hg6 mi
9:30 AM79 °FPartly sunny.No wind94%29.98 "Hg6 mi
9:00 AM77 °FFog.No wind94%29.95 "Hg3 mi
8:30 AM77 °FFog.5 mph94%29.95 "Hg2 mi
8:00 AM75 °FFog.5 mph100%29.95 "Hg1 mi
7:00 AM75 °FDense fog.5 mph100%29.92 "Hg1 mi
6:30 AM75 °FPassing clouds.3 mph94%29.92 "Hg4 mi
6:00 AM75 °FPassing clouds.8 mph94%29.89 "Hg4 mi
4:30 AM75 °FPassing clouds.5 mph94%29.89 "Hg4 mi
4:00 AM75 °FPassing clouds.No wind94%29.89 "Hg4 mi
3:00 AM75 °FPassing clouds.No wind94%29.89 "Hg4 mi
1:30 AM77 °FPassing clouds.No wind94%29.92 "Hg5 mi
1:00 AM77 °FPassing clouds.No wind94%29.92 "Hg5 mi
Weather by CustomWeather, © 2014

See weather overviewHow to use our weather pages